Location: Haliburton Scout Reserve
(45.0900°N, 78.3200°W)
Time: 20:44:02
(UTC-04:00)

CAS-4B - Pass Details

Date: 30 May 2022
Orbit: 523 x 537 km, 43.0° (Epoch: 28 June)

Event Time Altitude Azimuth Distance (km) Brightness Sun altitude
Rises 21:41:12 0° 276° (W) 2,662 ? -7.8°
Reaches altitude 10° 21:43:41 10° 264° (W) 1,767 ? -8.1°
Maximum altitude 21:47:04 26° 207° (SSW) 1,059 ? -8.5°
Enters shadow 21:50:15 11° 151° (SSE) 1,699 ? -8.9°
